Flag for Croatia Weather past 2 weeks in Dubrovnik, Croatia

Now
75 °F

Passing clouds.


Feels Like: 78 °F
Forecast: 70 / 82 °F
Wind: 8 mph from Northwest

Location: Dubrovnik / Cilipi

Current Time: Jul 2, 2015 at 8:57:02 PM

Latest Report: Jul 2, 2015 at 8:00 PM


Visibility: N/A

Pressure: 30.18 "Hg

Humidity: 57%

Dew point: 59 °F

Location of DubrovnikLocation

Historic Weather in Dubrovnik — Graph

°F

Dubrovnik temperature yesterday

Maximum temperature yesterday: 81 °F (at 12:00 PM)
Minimum temperature yesterday: 70 °F (at 10:00 PM)
Average temperature yesterday: 75 °F

Past Weeks' High & Low Weather Summary

 TemperatureHumidityPressure
High82 °F (Jun 27, 1:30 PM)100% (Jun 24, 3:00 PM)30.18 "Hg (Jun 24, 3:00 PM)
Low59 °F (Jun 24, 3:00 PM)28% (Jun 26, 12:30 PM)29.77 "Hg (Jun 18, 2:00 AM)
Average72 °F51%29.98 "Hg
* Reported Jun 17 7:00 PM — Jul 2 7:30 PM, Dubrovnik, Weather by CustomWeather, © 2015

Note: Actual official high and low records may vary slightly from our data, if they occured in-between our weather recording intervals... More about our weather records

Advertising

Dubrovnik weather history for previous 24 hours

 ConditionsComfort  
Time TempWeatherWind HumidityBarometerVisibility
7:30 PM
Thu, Jul 2
75 °FSunny.9 mph57%30.18 "Hg10 mi
7:00 PM77 °FSunny.10 mph54%30.18 "Hg10 mi
6:30 PM79 °FSunny.9 mph51%30.18 "Hg10 mi
6:00 PM79 °FSunny.9 mph51%30.18 "Hg10 mi
5:30 PM79 °FPassing clouds.8 mph51%30.15 "HgN/A
5:00 PM81 °FPassing clouds.9 mph48%30.18 "HgN/A
4:30 PM79 °FPassing clouds.9 mph51%30.18 "HgN/A
4:00 PM81 °FPassing clouds.9 mph45%30.18 "HgN/A
3:30 PM81 °FPassing clouds.9 mph39%30.18 "HgN/A
3:00 PM81 °FPassing clouds.8 mph45%30.18 "HgN/A
2:30 PM81 °FPassing clouds.8 mph42%30.18 "HgN/A
2:00 PM79 °FPassing clouds.9 mph45%30.18 "HgN/A
1:30 PM81 °FPassing clouds.8 mph42%30.18 "HgN/A
1:00 PM81 °FPassing clouds.8 mph42%30.18 "HgN/A
12:30 PM79 °FPassing clouds.8 mph42%30.18 "HgN/A
12:00 PM79 °FPassing clouds.8 mph45%30.18 "HgN/A
11:30 AM79 °FPassing clouds.8 mph48%30.18 "HgN/A
11:00 AM79 °FPassing clouds.7 mph48%30.18 "HgN/A
10:30 AM79 °FPassing clouds.7 mph48%30.18 "HgN/A
10:00 AM79 °FPassing clouds.8 mph48%30.18 "HgN/A
9:30 AM79 °FPassing clouds.7 mph42%30.18 "HgN/A
9:00 AM79 °FPassing clouds.5 mph39%30.18 "HgN/A
8:30 AM79 °FPassing clouds.5 mph39%30.18 "HgN/A
8:00 AM77 °FSunny.5 mph42%30.18 "Hg10 mi
7:30 AM75 °FPassing clouds.9 mph41%30.18 "HgN/A
7:00 AM75 °FSunny.13 mph41%30.18 "Hg10 mi
6:00 AM73 °FPassing clouds.13 mph44%30.15 "HgN/A
5:30 AM73 °FClear.8 mph41%30.15 "Hg10 mi
5:00 AM73 °FPassing clouds.13 mph41%30.15 "HgN/A
4:30 AM73 °FPassing clouds.10 mph41%30.15 "HgN/A
4:00 AM73 °FPassing clouds.9 mph41%30.15 "HgN/A
3:30 AM73 °FPassing clouds.8 mph44%30.15 "HgN/A
3:00 AM73 °FPassing clouds.7 mph47%30.15 "HgN/A
2:30 AM73 °FPassing clouds.7 mph47%30.15 "HgN/A
2:00 AM73 °FPassing clouds.9 mph47%30.15 "HgN/A
1:30 AM75 °FPassing clouds.9 mph44%30.15 "HgN/A
1:00 AM73 °FPassing clouds.8 mph47%30.15 "HgN/A
12:30 AM75 °FPassing clouds.6 mph44%30.15 "HgN/A
12:00 AM75 °FPassing clouds.7 mph47%30.15 "HgN/A
11:00 PM
Wed, Jul 1
70 °FClear.8 mph78%30.15 "Hg10 mi
10:30 PM70 °FClear.8 mph78%30.15 "Hg10 mi
10:00 PM70 °FPassing clouds.5 mph78%30.15 "HgN/A
9:30 PM72 °FPassing clouds.5 mph73%30.15 "HgN/A
9:00 PM72 °FPassing clouds.3 mph73%30.12 "HgN/A
8:30 PM72 °FSunny.No wind73%30.12 "Hg10 mi
8:00 PM73 °FSunny.5 mph69%30.12 "Hg10 mi
Weather by CustomWeather, © 2015

See weather overviewHow to use our weather pages